Location: ??
(30.4792°N, 114.2544°E)
Time: 13:30:09
(UTC+00:00)

Cosmos 2082 Rocket - Pass Details

Date: 07 June 2020
Orbit: 832 x 855 km, 71.0° (Epoch: 07 July)

Event Time Altitude Azimuth Distance (km) Brightness Sun altitude
Rises 11:42:01 0° 349° (NNW) 3,423 6.0 -4.3°
Reaches altitude 10° 11:44:38 10° 356° (N) 2,482 5.2 -4.8°
Maximum altitude 11:49:59 41° 66° (ENE) 1,218 2.8 -5.8°
Drops below altitude 10° 11:55:16 10° 135° (SE) 2,458 4.0 -6.8°
Enters shadow 11:56:02 - 138° (SE) 2,727 4.2 -6.9°
